RH
10 10 15 14 12 13 13 13 12 11 17 21 39 42 45 45 44 42 40 40 40 39 36 32 28 26 24 20 23 27 34 34 33 33 39 45 50 52 55 56 59 70 81 85
11 15 16 13 13 14 15 16 14 15 18 20 32 38 46 52 52 53 49 44 39 37 37 37 34 31 29 27 22 24 30 35 37 38 39 43 48 51 53 63 59 63 73 86
13 17 15 13 16 19 20 22 26 27 26 27 44 60 71 65 62 65 61 53 46 39 37 38 39 37 34 30 27 24 27 33 38 38 38 45 46 51 56 65 64 60 70 85
17 17 14 13 16 22 22 24 32 35 40 57 72 85 82 84 81 75 71 64 53 45 40 40 40 40 39 36 33 31 27 31 37 40 40 40 46 48 59 66 63 66 69 76
19 16 18 16 20 21 22 22 35 47 62 68 72 76 88 86 89 94 92 81 69 56 49 45 42 42 41 40 37 35 32 29 35 42 43 43 51 55 52 61 64 69 70 78
19 17 17 19 17 20 23 23 35 60 71 61 87 75 79 88 88 86 91 88 89 77 63 53 47 45 43 43 41 37 35 33 33 39 45 47 46 56 54 62 69 72 74 76
18 18 17 20 21 18 23 28 38 46 81 87 91 80 92 92 89 92 86 78 81 81 76 63 54 48 44 42 43 41 37 34 33 37 45 50 50 51 62 62 68 79 78 78
19 14 18 22 31 38 32 47 69 78 87 89 89 92 95 84 83 83 82 83 80 78 75 70 65 55 47 45 44 45 42 38 35 36 42 49 54 53 60 64 66 73 85 78
21 18 20 24 30 34 40 41 54 82 90 72 89 95 97 79 75 74 75 76 77 73 74 72 68 61 54 48 49 46 46 44 39 37 41 46 55 56 54 58 59 67 82 88
23 21 21 25 30 37 45 54 49 61 66 85 88 90 82 72 68 68 67 68 70 70 69 71 70 64 60 55 52 52 49 48 45 42 42 46 52 56 55 56 62 68 78 80
24 23 19 27 39 46 44 51 64 68 57 69 72 77 72 63 60 61 60 63 64 63 65 65 68 66 63 62 59 57 55 53 49 47 44 46 49 57 58 54 63 66 73 76
24 25 24 29 41 45 58 67 67 67 59 60 66 66 49 52 51 50 52 54 59 60 60 62 63 67 61 66 68 61 61 57 55 49 48 47 49 51 58 57 56 65 64 80
23 25 28 30 41 49 51 58 65 69 68 70 62 53 52 52 49 48 47 46 49 57 59 59 60 60 66 61 68 69 63 63 58 53 51 48 48 50 56 58 57 61 63 67
27 27 31 35 38 49 62 59 63 69 65 67 61 55 56 53 55 57 55 50 48 47 49 57 59 57 59 65 62 70 69 63 61 59 52 49 48 51 52 58 57 56 58 65
32 30 32 30 35 46 54 57 65 70 71 70 61 67 60 57 58 59 63 62 56 48 45 46 52 54 54 62 68 69 76 68 65 61 57 50 50 54 56 55 58 57 57 54
35 35 30 27 31 42 50 58 60 62 69 70 69 68 60 60 60 61 67 68 66 59 49 47 46 47 50 57 72 73 75 75 70 68 63 53 53 59 58 55 57 54 52 53
38 34 28 30 43 50 49 38 45 48 55 61 65 59 59 60 63 61 66 67 68 67 56 50 44 42 44 55 66 77 76 76 75 76 71 59 58 61 62 57 60 60 53 52
38 34 30 30 35 42 27 30 35 43 43 54 54 55 57 62 64 58 65 64 66 65 61 53 46 41 40 48 61 68 75 76 74 82 80 72 65 66 67 61 61 66 64 58
38 33 34 37 34 27 27 31 39 44 38 43 48 54 59 62 58 57 61 64 65 58 60 58 51 44 40 46 57 59 72 72 72 77 80 82 84 75 75 71 66 67 70 67
38 37 35 36 38 40 25 29 34 39 45 39 46 53 57 61 60 56 61 60 55 54 57 59 54 48 49 48 51 57 64 67 65 66 72 77 80 86 85 79 72 70 71 71
39 39 39 35 39 33 23 29 34 45 34 41 48 53 55 62 66 70 70 59 53 53 57 58 56 55 55 50 51 56 61 67 66 65 58 62 72 77 90 85 81 73 70 71
39 44 42 41 46 38 21 28 34 27 30 33 38 43 51 54 62 67 62 58 56 56 54 56 57 57 57 54 56 57 61 62 65 63 58 52 56 67 78 87 89 81 74 70
48 39 36 32 21 19 20 21 23 27 29 29 39 42 43 46 53 55 53 55 57 55 53 53 54 56 57 58 58 58 57 58 60 60 59 53 49 50 61 76 79 82 82 80
45 43 40 37 21 21 19 18 20 22 24 27 34 37 42 43 38 42 50 51 53 55 55 51 50 52 55 56 56 57 56 55 54 55 55 52 49 48 47 64 73 74 74 71
45 46 41 36 28 24 23 19 17 18 21 25 28 30 29 31 35 39 41 45 51 55 55 54 52 53 54 55 54 52 51 51 49 49 50 50 49 46 45 46 67 75 71 69
48 44 40 32 26 21 22 21 17 19 22 22 22 23 26 29 32 33 38 43 45 47 48 52 57 57 55 54 53 49 46 45 44 43 46 48 48 48 47 44 42 56 67 64